Vorticity
3 6 16 8 7 7 9 10 13 14 13 13 13 14 14 13 14 17 22 25 5 9
10 10 12 11 15 10 8 9 12 11 13 11 6 11 14 13 13 16 11 22 22 7
10 10 10 6 17 16 9 28 7 13 14 12 15 17 17 21 21 14 14 19 15 17
21 20 4 12 9 6 6 8 16 16 11 11 17 9 15 16 26 20 7 23 19 7
8 6 5 9 18 30 17 7 23 -10 1 14 2 0 0 39 -7 6 13 33 18 19
6 9 9 7 -2 13 25 16 5 16 10 7 16 1 8 -12 17 14 18 -12 20 0
4 6 7 8 8 8 18 21 21 17 14 22 15 3 -4 7 12 -1 -6 5 3 9
7 8 6 7 10 10 8 5 -6 0 0 36 40 23 18 27 21 16 24 19 18 6
9 10 9 7 8 10 11 12 11 8 12 6 -7 6 10 -7 34 19 18 20 20 26
9 9 9 10 8 10 12 11 12 13 13 13 13 13 12 14 8 12 12 9 9 12
8 9 9 10 10 9 10 14 16 15 14 13 13 12 10 10 9 9 9 10 10 10
7 7 8 9 11 12 11 11 12 12 10 10 9 9 9 9 10 11 10 9 10 10
6 7 7 8 10 11 12 13 12 11 12 10 8 8 8 8 8 8 8 10 11 10
5 6 6 7 9 10 11 12 13 12 10 9 9 8 7 8 10 10 9 9 9 9
Height
3024 3022 3020 3019 3017 3015 3014 3013 3013 3012 3011 3011 3011 3011 3012 3013 3014 3014 3016 3018 3022 3026
3023 3019 3017 3015 3014 3011 3009 3008 3007 3006 3005 3004 3004 3003 3003 3003 3003 3005 3005 3007 3011 3014
3020 3017 3015 3013 3009 3007 3004 3002 3001 3000 2999 2997 2996 2995 2994 2994 2994 2996 2996 2997 3000 3004
3016 3014 3012 3009 3006 3002 3000 2998 2995 2994 2992 2991 2990 2989 2987 2986 2987 2988 2989 2989 2991 2993
3016 3011 3007 3003 2999 2995 2992 2991 2991 2989 2988 2987 2986 2984 2983 2981 2983 2983 2984 2982 2983 2984
3014 3010 3006 3002 2997 2993 2988 2986 2985 2985 2984 2983 2982 2980 2979 2978 2976 2977 2977 2974 2973 2976
3010 3007 3004 3000 2995 2991 2987 2984 2981 2980 2979 2977 2976 2975 2973 2971 2970 2970 2970 2970 2967 2968
3008 3005 3001 2997 2993 2989 2986 2983 2979 2977 2974 2971 2969 2969 2968 2965 2963 2962 2961 2961 2960 2960
3006 3002 2998 2994 2990 2987 2982 2978 2976 2972 2970 2968 2965 2963 2962 2960 2958 2957 2955 2955 2954 2952
3001 2998 2994 2991 2987 2984 2980 2975 2971 2968 2965 2962 2960 2959 2957 2955 2953 2952 2951 2949 2948 2947
2997 2994 2991 2987 2983 2979 2976 2972 2968 2964 2961 2958 2957 2954 2953 2951 2951 2949 2948 2945 2943 2941
2993 2990 2986 2983 2979 2975 2972 2968 2965 2962 2959 2955 2952 2950 2949 2947 2945 2944 2943 2941 2939 2937
2989 2986 2982 2979 2975 2972 2969 2966 2963 2960 2957 2954 2951 2947 2944 2942 2940 2939 2937 2935 2933 2931
2984 2981 2978 2974 2971 2967 2964 2961 2959 2957 2953 2951 2948 2946 2944 2940 2937 2935 2932 2929 2926 2924